Location: Beverley
(50.2667°N, 107.9667°W)
Time: 20:52:49
(UTC+00:00)

XW-2A - Visible Passes

Search period start: 27 June 2022 00:00
Search period end: 07 July 2022 00:00
Orbit: 398 x 413 km, 97.2° (Epoch: 27 June)

Date Brightness Start Highest point End Pass type
(mag) Time Alt. Az. Time Alt. Az. Time Alt. Az.
27 Jun ? 04:18:03 10° S 04:21:06 50° W 04:24:08 10° NNW visible
28 Jun ? 05:02:44 10° SW 05:04:37 15° W 05:06:30 10° NW visible
29 Jun ? 04:12:42 10° S 04:15:46 60° W 04:18:51 10° NNW visible
30 Jun ? 04:57:02 10° SW 04:59:11 17° W 05:01:20 10° NW visible
01 Jul ? 04:07:13 10° S 04:10:18 72° WSW 04:13:25 10° NNW visible
02 Jul ? 04:51:14 10° SW 04:53:37 20° W 04:55:59 10° NW visible
04 Jul ? 04:45:22 10° SSW 04:47:54 23° W 04:50:28 10° NW visible
06 Jul ? 04:39:22 10° SSW 04:42:04 27° W 04:44:47 10° NW visible
